,,Stat6,,Stat2,,Stat8,,Stat9,,Stat10,,Wind1,,Wind1,
time,status,PA1M_AVG,status,PR1M_SUM,status,RH1M_AVG,status,SR1M_AVG,status,TA1M_AVG,status,W1dAve1m,status,W1sAve1m,
2003-11-02, 00:00:00,VALID,917.726,VALID,0,VALID,97.3846,VALID,0,VALID,18.9629,VALID,62,VALID,0.244004,
2003-11-02, 00:01:00,VALID,917.7,VALID,0,VALID,97.4596,VALID,0,VALID,18.9535,VALID,61,VALID,0.360518,
2003-11-02, 00:02:00,VALID,917.675,VALID,0,VALID,97.5333,VALID,0,VALID,18.9277,VALID,61,VALID,0.209162,
2003-11-02, 00:03:00,VALID,917.657,VALID,0,VALID,97.6681,VALID,0.0169808,VALID,18.9177,VALID,61,VALID,0.410429,
2003-11-02, 00:04:00,VALID,917.649,VALID,0,VALID,97.7292,VALID,0,VALID,18.882,VALID,60,VALID,0.364648,
2003-11-02, 00:05:00,VALID,917.632,VALID,0,VALID,97.7152,VALID,0.0169808,VALID,18.843,VALID,57,VALID,0.514881,
2003-11-02, 00:06:00,VALID,917.615,VALID,0,VALID,97.7749,VALID,0,VALID,18.8206,VALID,57,VALID,0.212652,
2003-11-02, 00:07:00,VALID,917.588,VALID,0,VALID,97.925,VALID,0,VALID,18.8209,VALID,57,VALID,0.0377287,
2003-11-02, 00:08:00,VALID,917.562,VALID,0,VALID,98.0102,VALID,0,VALID,18.8075,VALID,57,VALID,0.309152,
2003-11-02, 00:09:00,VALID,917.535,VALID,0,VALID,98.0242,VALID,0,VALID,18.808,VALID,57,VALID,0.234189,
2003-11-02, 00:10:00,VALID,917.515,VALID,0,VALID,98.0763,VALID,0.0169808,VALID,18.8179,VALID,57,VALID,0.161585,
2003-11-02, 00:11:00,VALID,917.507,VALID,0,VALID,98.1348,VALID,0,VALID,18.7985,VALID,57,VALID,0,
2003-11-02, 00:12:00,VALID,917.496,VALID,0,VALID,98.2086,VALID,0,VALID,18.7856,VALID,57,VALID,0.00121528,
2003-11-02, 00:13:00,VALID,917.48,VALID,0,VALID,98.2009,VALID,0,VALID,18.7694,VALID,57,VALID,0.0687881,
2003-11-02, 00:14:00,VALID,917.459,VALID,0,VALID,98.1602,VALID,0,VALID,18.7332,VALID,57,VALID,0.210938,
2003-11-02, 00:15:00,VALID,917.445,VALID,0,VALID,98.2327,VALID,-0.0169808,VALID,18.7369,VALID,57,VALID,0.0213068,
2003-11-02, 00:16:00,VALID,917.435,VALID,0,VALID,98.2213,VALID,0,VALID,18.7272,VALID,340,VALID,0.345796,
2003-11-02, 00:17:00,VALID,917.418,VALID,0,VALID,98.2442,VALID,0,VALID,18.7401,VALID,275,VALID,0.304167,
2003-11-02, 00:18:00,VALID,917.421,VALID,0,VALID,98.2137,VALID,0,VALID,18.7598,VALID,277,VALID,0.351749,
2003-11-02, 00:19:00,VALID,917.421,VALID,0,VALID,98.2137,VALID,0,VALID,18.7657,VALID,277,VALID,0.0961538,
2003-11-02, 00:20:00,VALID,917.424,VALID,0,VALID,98.3268,VALID,0.0169808,VALID,18.7662,VALID,277,VALID,0.102515,
2003-11-02, 00:21:00,VALID,917.425,VALID,0,VALID,98.4718,VALID,0,VALID,18.7817,VALID,278,VALID,0.0642756,
2003-11-02, 00:22:00,VALID,917.424,VALID,0,VALID,98.5112,VALID,0,VALID,18.8022,VALID,328,VALID,0.28782,
2003-11-02, 00:23:00,VALID,917.433,VALID,0,VALID,98.4858,VALID,-0.0169808,VALID,18.7854,VALID,359,VALID,0.103338,
2003-11-02, 00:24:00,VALID,917.429,VALID,0,VALID,98.4769,VALID,-0.0169808,VALID,18.7598,VALID,359,VALID,0,
2003-11-02, 00:25:00,VALID,917.436,VALID,0,VALID,98.5659,VALID,0,VALID,18.7731,VALID,359,VALID,0,
2003-11-02, 00:26:00,VALID,917.439,VALID,0,VALID,98.6129,VALID,0,VALID,18.7531,VALID,359,VALID,0.0396484,
2003-11-02, 00:27:00,VALID,917.433,VALID,0,VALID,98.7261,VALID,0,VALID,18.763,VALID,359,VALID,0.247142,
2003-11-02, 00:28:00,VALID,917.424,VALID,0,VALID,98.749,VALID,-0.0169808,VALID,18.7662,VALID,359,VALID,0.130859,
2003-11-02, 00:29:00,VALID,917.425,VALID,0,VALID,98.7477,VALID,0,VALID,18.7595,VALID,359,VALID,0,
2003-11-02, 00:30:00,VALID,917.415,VALID,0,VALID,98.735,VALID,0,VALID,18.7464,VALID,359,VALID,0,
2003-11-02, 00:31:01,VALID,917.409,VALID,0,VALID,98.6943,VALID,0,VALID,18.7466,VALID,360,VALID,0.0686141,
2003-11-02, 00:32:00,VALID,917.4,VALID,0,VALID,98.6269,VALID,0,VALID,18.73,VALID,360,VALID,0.106831,
2003-11-02, 00:33:00,VALID,917.387,VALID,0,VALID,98.5125,VALID,-0.0169808,VALID,18.7178,VALID,360,VALID,0.0503906,
2003-11-02, 00:34:00,VALID,917.375,VALID,0,VALID,98.3866,VALID,0,VALID,18.6982,VALID,1,VALID,0.355283,
2003-11-02, 00:35:01,VALID,917.374,VALID,0,VALID,98.2391,VALID,0,VALID,18.692,VALID,64,VALID,0.463715,
2003-11-02, 00:36:00,VALID,917.366,VALID,0,VALID,98.1615,VALID,0,VALID,18.6887,VALID,83,VALID,0.495821,
2003-11-02, 00:37:00,VALID,917.352,VALID,0,VALID,98.1869,VALID,0,VALID,18.6952,VALID,95,VALID,0.583147,
2003-11-02, 00:38:00,VALID,917.335,VALID,0,VALID,98.2315,VALID,0,VALID,18.6853,VALID,102,VALID,0.651811,
2003-11-02, 00:39:00,VALID,917.33,VALID,0.2,VALID,98.3319,VALID,0,VALID,18.6924,VALID,115,VALID,0.781622,
2003-11-02, 00:40:00,VALID,917.316,VALID,0,VALID,98.4947,VALID,0,VALID,18.6857,VALID,118,VALID,0.778577,
2003-11-02, 00:41:00,VALID,917.296,VALID,0,VALID,98.5544,VALID,0,VALID,18.6887,VALID,118,VALID,0.565104,
2003-11-02, 00:42:00,VALID,917.288,VALID,0,VALID,98.5392,VALID,0,VALID,18.7019,VALID,104,VALID,0.599787,
2003-11-02, 00:43:00,VALID,917.28,VALID,0,VALID,98.398,VALID,0,VALID,18.7051,VALID,101,VALID,0.624455,
2003-11-02, 00:44:00,VALID,917.273,VALID,0,VALID,98.2747,VALID,0.0169808,VALID,18.7208,VALID,106,VALID,0.631037,
2003-11-02, 00:45:00,VALID,917.269,VALID,0,VALID,98.2276,VALID,0.0339617,VALID,18.7367,VALID,125,VALID,0.470238,
2003-11-02, 00:46:00,VALID,917.275,VALID,0,VALID,98.2378,VALID,0,VALID,18.7434,VALID,127,VALID,0.490589,
2003-11-02, 00:47:00,VALID,917.287,VALID,0,VALID,98.2632,VALID,0,VALID,18.7471,VALID,128,VALID,0.667515,
2003-11-02, 00:48:00,VALID,917.282,VALID,0,VALID,98.3586,VALID,0,VALID,18.7374,VALID,126,VALID,0.668155,
2003-11-02, 00:49:01,VALID,917.291,VALID,0,VALID,98.4731,VALID,0,VALID,18.7312,VALID,122,VALID,0.585069,
2003-11-02, 00:50:00,VALID,917.301,VALID,0,VALID,98.4934,VALID,-0.0169808,VALID,18.7049,VALID,118,VALID,0.598656,
2003-11-02, 00:51:01,VALID,917.296,VALID,0,VALID,98.5583,VALID,0,VALID,18.6857,VALID,118,VALID,0.391897,
2003-11-02, 00:52:00,VALID,917.297,VALID,0,VALID,98.8062,VALID,0,VALID,18.6693,VALID,118,VALID,0.571584,
2003-11-02, 00:53:00,VALID,917.31,VALID,0,VALID,99.0148,VALID,0,VALID,18.6788,VALID,118,VALID,0.428416,
2003-11-02, 00:54:00,VALID,917.309,VALID,0,VALID,99.1076,VALID,-0.0339617,VALID,18.6797,VALID,118,VALID,0.0337936,
2003-11-02, 00:55:00,VALID,917.284,VALID,0,VALID,99.1788,VALID,0.0169808,VALID,18.6827,VALID,118,VALID,0,
2003-11-02, 00:56:01,VALID,917.275,VALID,0,VALID,99.2678,VALID,-0.0339617,VALID,18.683,VALID,118,VALID,0,
2003-11-02, 00:57:00,VALID,917.253,VALID,0,VALID,99.2843,VALID,-0.0339617,VALID,18.6793,VALID,118,VALID,0.0109012,
2003-11-02, 00:58:00,VALID,917.241,VALID,0,VALID,99.2716,VALID,0,VALID,18.6756,VALID,118,VALID,0.107244,
2003-11-02, 00:59:00,VALID,917.224,VALID,0,VALID,99.3021,VALID,-0.0339617,VALID,18.6698,VALID,118,VALID,0.458651,
2003-11-02, 01:00:00,VALID,917.216,VALID,0,VALID,99.2615,VALID,0.0169808,VALID,18.6597,VALID,92,VALID,0.568496,
2003-11-02, 01:01:00,VALID,917.209,VALID,0,VALID,99.3047,VALID,-0.0169808,VALID,18.6537,VALID,101,VALID,0.779204,
2003-11-02, 01:02:00,VALID,917.216,VALID,0,VALID,99.222,VALID,0,VALID,18.6541,VALID,102,VALID,0.445685,
2003-11-02, 01:03:00,VALID,917.214,VALID,0,VALID,99.1915,VALID,-0.0169808,VALID,18.6177,VALID,102,VALID,0,
2003-11-02, 01:04:00,VALID,917.205,VALID,0,VALID,99.1572,VALID,0,VALID,18.5919,VALID,102,VALID,0,
2003-11-02, 01:05:00,VALID,917.191,VALID,0,VALID,99.105,VALID,-0.0169808,VALID,18.5764,VALID,96,VALID,0.065625,
2003-11-02, 01:06:00,VALID,917.169,VALID,0,VALID,99.1,VALID,-0.0339617,VALID,18.5665,VALID,65,VALID,0.53995,
2003-11-02, 01:07:00,VALID,917.148,VALID,0,VALID,99.1394,VALID,-0.0169808,VALID,18.5603,VALID,59,VALID,0.533156,
2003-11-02, 01:08:00,VALID,917.132,VALID,0,VALID,99.1585,VALID,-0.0169808,VALID,18.5469,VALID,55,VALID,0.428544,
2003-11-02, 01:09:00,VALID,917.113,VALID,0,VALID,99.1305,VALID,0,VALID,18.531,VALID,55,VALID,0.160511,
2003-11-02, 01:10:00,VALID,917.104,VALID,0,VALID,99.1394,VALID,0,VALID,18.5114,VALID,48,VALID,0.368278,
2003-11-02, 01:11:01,VALID,917.085,VALID,0,VALID,99.1279,VALID,0,VALID,18.4922,VALID,44,VALID,0.455556,
2003-11-02, 01:12:01,VALID,917.069,VALID,0,VALID,99.0872,VALID,0,VALID,18.4726,VALID,57,VALID,0.588663,
2003-11-02, 01:13:01,VALID,917.059,VALID,0,VALID,99.3161,VALID,0,VALID,18.4724,VALID,77,VALID,0.795603,
2003-11-02, 01:14:01,VALID,917.057,VALID,0,VALID,99.4268,VALID,-0.0169808,VALID,18.4883,VALID,104,VALID,0.706101,
2003-11-02, 01:15:00,VALID,917.052,VALID,0,VALID,99.4751,VALID,0,VALID,18.5476,VALID,125,VALID,0.644531,
2003-11-02, 01:16:00,VALID,917.06,VALID,0,VALID,99.4064,VALID,0,VALID,18.5734,VALID,148,VALID,0.71875,
2003-11-02, 01:17:01,VALID,917.033,VALID,0,VALID,99.3886,VALID,0,VALID,18.5792,VALID,151,VALID,0.691667,
2003-11-02, 01:18:00,VALID,917.005,VALID,0,VALID,99.3975,VALID,0,VALID,18.6092,VALID,143,VALID,0.542878,
2003-11-02, 01:19:01,VALID,916.98,VALID,0,VALID,99.3746,VALID,0,VALID,18.6082,VALID,132,VALID,0.540128,
2003-11-02, 01:20:01,VALID,916.956,VALID,0,VALID,99.3695,VALID,-0.0339617,VALID,18.6119,VALID,144,VALID,0.577734,
2003-11-02, 01:21:00,VALID,916.927,VALID,0,VALID,99.3543,VALID,-0.0339617,VALID,18.6249,VALID,128,VALID,0.304297,
2003-11-02, 01:22:01,VALID,916.913,VALID,0,VALID,99.3466,VALID,-0.0169808,VALID,18.6184,VALID,142,VALID,0.270064,
2003-11-02, 01:23:00,VALID,916.897,VALID,0,VALID,99.3327,VALID,-0.0509425,VALID,18.6182,VALID,142,VALID,0.314063,
2003-11-02, 01:24:01,VALID,916.881,VALID,0,VALID,99.3327,VALID,-0.0509425,VALID,18.6186,VALID,142,VALID,0.37314,
2003-11-02, 01:25:00,VALID,916.875,VALID,0,VALID,99.3912,VALID,0,VALID,18.6281,VALID,142,VALID,0.122869,
2003-11-02, 01:26:01,VALID,916.864,VALID,0,VALID,99.3797,VALID,-0.0169808,VALID,18.6246,VALID,142,VALID,0,
2003-11-02, 01:27:01,VALID,916.848,VALID,0,VALID,99.4001,VALID,-0.0169808,VALID,18.608,VALID,142,VALID,0,
2003-11-02, 01:28:01,VALID,916.837,VALID,0,VALID,99.4344,VALID,-0.0339617,VALID,18.6184,VALID,142,VALID,0,
2003-11-02, 01:29:00,VALID,916.826,VALID,0,VALID,99.5259,VALID,0,VALID,18.6541,VALID,142,VALID,0,
2003-11-02, 01:30:00,VALID,916.803,VALID,0,VALID,99.5781,VALID,-0.0339617,VALID,18.6604,VALID,142,VALID,0,
2003-11-02, 01:31:00,VALID,916.791,VALID,0,VALID,99.5806,VALID,-0.0339617,VALID,18.6703,VALID,142,VALID,0.204397,
2003-11-02, 01:32:00,VALID,916.776,VALID,0,VALID,99.5107,VALID,-0.0339617,VALID,18.6738,VALID,142,VALID,0.37862,
2003-11-02, 01:33:00,VALID,916.788,VALID,0,VALID,99.4115,VALID,-0.0339617,VALID,18.641,VALID,142,VALID,0.558117,
2003-11-02, 01:34:00,VALID,916.8,VALID,0,VALID,99.4001,VALID,-0.0169808,VALID,18.6246,VALID,142,VALID,0.302973,
2003-11-02, 01:35:00,VALID,916.808,VALID,0,VALID,99.4382,VALID,-0.0169808,VALID,18.6087,VALID,156,VALID,0.456287,
2003-11-02, 01:36:00,VALID,916.815,VALID,0,VALID,99.484,VALID,-0.0339617,VALID,18.6154,VALID,167,VALID,0.523256,
2003-11-02, 01:37:01,VALID,916.806,VALID,0,VALID,99.5018,VALID,-0.0169808,VALID,18.5921,VALID,167,VALID,0.585764,
2003-11-02, 01:38:00,VALID,916.795,VALID,0,VALID,99.5488,VALID,-0.0169808,VALID,18.5923,VALID,154,VALID,0.537609,
2003-11-02, 01:39:00,VALID,916.783,VALID,0,VALID,99.5959,VALID,-0.0509425,VALID,18.5958,VALID,142,VALID,0.581659,
2003-11-02, 01:40:00,VALID,916.762,VALID,0,VALID,99.634,VALID,-0.0339617,VALID,18.5953,VALID,139,VALID,0.668155,
2003-11-02, 01:41:01,VALID,916.755,VALID,0,VALID,99.6582,VALID,-0.0509425,VALID,18.6122,VALID,132,VALID,0.429315,
2003-11-02, 01:42:01,VALID,916.735,VALID,0,VALID,99.7256,VALID,-0.0169808,VALID,18.6149,VALID,132,VALID,0.702567,
2003-11-02, 01:43:00,VALID,916.728,VALID,0,VALID,99.7739,VALID,-0.0169808,VALID,18.6345,VALID,133,VALID,0.726744,
2003-11-02, 01:44:00,VALID,916.715,VALID,0,VALID,99.7663,VALID,-0.0339617,VALID,18.6408,VALID,130,VALID,0.590298,
2003-11-02, 01:45:00,VALID,916.683,VALID,0,VALID,99.7752,VALID,-0.0509425,VALID,18.6382,VALID,130,VALID,0.664844,
2003-11-02, 01:46:01,VALID,916.69,VALID,0,VALID,99.7828,VALID,-0.0509425,VALID,18.6281,VALID,129,VALID,0.601563,
2003-11-02, 01:47:00,VALID,916.689,VALID,0,VALID,99.8197,VALID,0,VALID,18.6149,VALID,127,VALID,0.519817,
2003-11-02, 01:48:01,VALID,916.709,VALID,0,VALID,99.8744,VALID,-0.0339617,VALID,18.608,VALID,126,VALID,0.682958,
2003-11-02, 01:49:00,VALID,916.706,VALID,0,VALID,99.8795,VALID,-0.0339617,VALID,18.6085,VALID,127,VALID,0.489139,
2003-11-02, 01:50:00,VALID,916.696,VALID,0,VALID,99.9125,VALID,-0.0339617,VALID,18.6087,VALID,126,VALID,0.478819,
2003-11-02, 01:51:00,VALID,916.689,VALID,0,VALID,99.8706,VALID,-0.0169808,VALID,18.5993,VALID,126,VALID,0.471236,
2003-11-02, 01:52:00,VALID,916.672,VALID,0,VALID,99.8388,VALID,-0.0169808,VALID,18.5796,VALID,126,VALID,0.453804,
2003-11-02, 01:53:01,VALID,916.637,VALID,0,VALID,99.9252,VALID,-0.0169808,VALID,18.5504,VALID,125,VALID,0.634588,
2003-11-02, 01:54:00,VALID,916.624,VALID,0,VALID,99.9583,VALID,-0.0169808,VALID,18.5538,VALID,126,VALID,0.816667,
2003-11-02, 01:55:01,VALID,916.605,VALID,0,VALID,99.9929,VALID,-0.0339617,VALID,18.5637,VALID,130,VALID,0.982118,
2003-11-02, 01:56:00,VALID,916.607,VALID,0,VALID,99.9784,VALID,-0.0169808,VALID,18.5439,VALID,127,VALID,1.25745,
2003-11-02, 01:57:01,VALID,916.601,VALID,0,VALID,99.9807,VALID,-0.0169808,VALID,18.5411,VALID,124,VALID,1.28646,
2003-11-02, 01:58:00,VALID,916.606,VALID,0,VALID,100,VALID,-0.0339617,VALID,18.5607,VALID,119,VALID,1.17624,
2003-11-02, 01:59:00,VALID,916.598,VALID,0,VALID,100,VALID,-0.0679233,VALID,18.5506,VALID,130,VALID,0.96875,
2003-11-02, 02:00:00,VALID,916.599,VALID,0,VALID,100,VALID,0,VALID,18.5541,VALID,126,VALID,0.853659,
2003-11-02, 02:01:00,VALID,916.593,VALID,0,VALID,100,VALID,-0.0509425,VALID,18.5474,VALID,122,VALID,1.18803,
2003-11-02, 02:02:00,VALID,916.582,VALID,0,VALID,100,VALID,0,VALID,18.5504,VALID,129,VALID,0.853002,
2003-11-02, 02:03:01,VALID,916.554,VALID,0,VALID,100,VALID,0,VALID,18.5464,VALID,110,VALID,1.13481,
2003-11-02, 02:04:00,VALID,916.54,VALID,0,VALID,100,VALID,-0.0169808,VALID,18.5434,VALID,89,VALID,0.846112,
2003-11-02, 02:05:01,VALID,916.516,VALID,0,VALID,100,VALID,-0.0169808,VALID,18.5437,VALID,62,VALID,0.772507,
2003-11-02, 02:06:01,VALID,916.511,VALID,0,VALID,100,VALID,0,VALID,18.5347,VALID,79,VALID,0.531795,
2003-11-02, 02:07:00,VALID,916.5,VALID,0,VALID,100,VALID,-0.0339617,VALID,18.525,VALID,103,VALID,0.53125,
2003-11-02, 02:08:01,VALID,916.489,VALID,0,VALID,100,VALID,-0.0339617,VALID,18.5404,VALID,91,VALID,0.536184,
2003-11-02, 02:09:00,VALID,916.49,VALID,0,VALID,100,VALID,-0.0339617,VALID,18.5573,VALID,97,VALID,0.436612,
2003-11-02, 02:10:00,VALID,916.487,VALID,0,VALID,100,VALID,-0.0169808,VALID,18.5667,VALID,101,VALID,0.727257,
2003-11-02, 02:11:00,VALID,916.47,VALID,0,VALID,100,VALID,-0.0169808,VALID,18.5732,VALID,110,VALID,0.946646,
2003-11-02, 02:12:01,VALID,916.459,VALID,0,VALID,100,VALID,-0.0169808,VALID,18.56,VALID,80,VALID,0.774182,
2003-11-02, 02:13:01,VALID,916.453,VALID,0,VALID,100,VALID,-0.0169808,VALID,18.5471,VALID,61,VALID,0.653773,
2003-11-02, 02:14:01,VALID,916.435,VALID,0,VALID,100,VALID,-0.0339617,VALID,18.5118,VALID,63,VALID,0.795117,
2003-11-02, 02:15:01,VALID,916.429,VALID,0,VALID,100,VALID,-0.0339617,VALID,18.5024,VALID,79,VALID,0.739462,
2003-11-02, 02:16:01,VALID,916.412,VALID,0,VALID,100,VALID,-0.0169808,VALID,18.489,VALID,90,VALID,0.844703,
2003-11-02, 02:17:01,VALID,916.397,VALID,0,VALID,100,VALID,0,VALID,18.5218,VALID,109,VALID,0.632431,
2003-11-02, 02:18:01,VALID,916.401,VALID,0,VALID,100,VALID,-0.0679233,VALID,18.5148,VALID,109,VALID,0.673692,
2003-11-02, 02:19:01,VALID,916.394,VALID,0,VALID,100,VALID,-0.0339617,VALID,18.528,VALID,112,VALID,0.854759,
2003-11-02, 02:20:00,VALID,916.407,VALID,0,VALID,100,VALID,-0.0339617,VALID,18.5381,VALID,117,VALID,0.904344,
2003-11-02, 02:21:01,VALID,916.393,VALID,0,VALID,100,VALID,-0.0679233,VALID,18.5575,VALID,124,VALID,0.715216,
2003-11-02, 02:22:01,VALID,916.382,VALID,0,VALID,100,VALID,-0.101885,VALID,18.5416,VALID,129,VALID,0.625762,
2003-11-02, 02:23:01,VALID,916.361,VALID,0,VALID,100,VALID,-0.0849042,VALID,18.5381,VALID,132,VALID,0.621761,
2003-11-02, 02:24:01,VALID,916.344,VALID,0,VALID,100,VALID,-0.0509425,VALID,18.5312,VALID,135,VALID,0.616279,
2003-11-02, 02:25:00,VALID,916.339,VALID,0,VALID,100,VALID,-0.0509425,VALID,18.5349,VALID,136,VALID,0.606399,
2003-11-02, 02:26:01,VALID,916.339,VALID,0,VALID,100,VALID,-0.0679233,VALID,18.5188,VALID,136,VALID,0.510653,
2003-11-02, 02:27:01,VALID,916.34,VALID,0,VALID,100,VALID,-0.0849042,VALID,18.5088,VALID,136,VALID,0.565584,
2003-11-02, 02:28:01,VALID,916.352,VALID,0,VALID,100,VALID,-0.101885,VALID,18.5358,VALID,136,VALID,0.553416,
2003-11-02, 02:29:01,VALID,916.354,VALID,0,VALID,100,VALID,-0.101885,VALID,18.5314,VALID,136,VALID,0.513494,
2003-11-02, 02:30:01,VALID,916.358,VALID,0,VALID,100,VALID,-0.0679233,VALID,18.5543,VALID,136,VALID,0.593395,
2003-11-02, 02:31:01,VALID,916.345,VALID,0,VALID,100,VALID,-0.0679233,VALID,18.557,VALID,136,VALID,0.636186,
2003-11-02, 02:32:01,VALID,916.337,VALID,0,VALID,100,VALID,-0.0849042,VALID,18.5672,VALID,136,VALID,0.855283,
2003-11-02, 02:33:01,VALID,916.32,VALID,0,VALID,100,VALID,-0.0509425,VALID,18.5801,VALID,136,VALID,0.804129,
2003-11-02, 02:34:01,VALID,916.306,VALID,0,VALID,99.9667,VALID,-0.0679233,VALID,18.6057,VALID,132,VALID,0.725497,
2003-11-02, 02:35:01,VALID,916.305,VALID,0,VALID,99.8566,VALID,-0.0849042,VALID,18.6159,VALID,129,VALID,0.499428,
2003-11-02, 02:36:01,VALID,916.301,VALID,0,VALID,99.7587,VALID,-0.0339617,VALID,18.6285,VALID,120,VALID,0.439499,
2003-11-02, 02:37:01,VALID,916.298,VALID,0,VALID,99.6747,VALID,-0.101885,VALID,18.6482,VALID,96,VALID,0.708705,
2003-11-02, 02:38:01,VALID,916.305,VALID,0,VALID,99.5209,VALID,-0.101885,VALID,18.6608,VALID,92,VALID,0.81141,
2003-11-02, 02:39:01,VALID,916.331,VALID,0,VALID,99.3123,VALID,-0.0679233,VALID,18.6742,VALID,89,VALID,1.2309,
2003-11-02, 02:40:01,VALID,916.344,VALID,0,VALID,99.1572,VALID,-0.0849042,VALID,18.677,VALID,110,VALID,0.925037,
2003-11-02, 02:41:01,VALID,916.381,VALID,0,VALID,99.1139,VALID,-0.0849042,VALID,18.7026,VALID,115,VALID,1.22852,
2003-11-02, 02:42:01,VALID,916.39,VALID,0,VALID,99.0377,VALID,-0.0679233,VALID,18.7065,VALID,122,VALID,1.44869,
2003-11-02, 02:43:01,VALID,916.406,VALID,0,VALID,99.1852,VALID,-0.0849042,VALID,18.7132,VALID,119,VALID,1.6168,
2003-11-02, 02:44:01,VALID,916.403,VALID,0,VALID,99.2525,VALID,-0.0849042,VALID,18.6899,VALID,111,VALID,1.04208,
2003-11-02, 02:45:01,VALID,916.389,VALID,0,VALID,99.3187,VALID,-0.0339617,VALID,18.6904,VALID,96,VALID,0.876776,
2003-11-02, 02:46:01,VALID,916.368,VALID,0,VALID,99.3606,VALID,-0.0679233,VALID,18.6738,VALID,85,VALID,0.663352,
2003-11-02, 02:47:01,VALID,916.359,VALID,0,VALID,99.4357,VALID,-0.0509425,VALID,18.6712,VALID,77,VALID,0.64566,
2003-11-02, 02:48:01,VALID,916.353,VALID,0,VALID,99.531,VALID,-0.0679233,VALID,18.6678,VALID,99,VALID,1.03449,
2003-11-02, 02:49:01,VALID,916.345,VALID,0,VALID,99.5755,VALID,-0.0509425,VALID,18.6541,VALID,73,VALID,0.699491,
2003-11-02, 02:50:01,VALID,916.347,VALID,0,VALID,99.6213,VALID,-0.0679233,VALID,18.6447,VALID,81,VALID,0.748476,
2003-11-02, 02:51:01,VALID,916.333,VALID,0,VALID,99.704,VALID,-0.0679233,VALID,18.6645,VALID,97,VALID,0.978198,
2003-11-02, 02:52:01,VALID,916.347,VALID,0,VALID,99.6951,VALID,-0.0849042,VALID,18.6512,VALID,82,VALID,0.651634,
2003-11-02, 02:53:01,VALID,916.318,VALID,0,VALID,99.7447,VALID,-0.0339617,VALID,18.638,VALID,99,VALID,1.10265,
2003-11-02, 02:54:01,VALID,916.311,VALID,0,VALID,99.7574,VALID,-0.0679233,VALID,18.6281,VALID,67,VALID,0.737165,
2003-11-02, 02:55:01,VALID,916.297,VALID,0,VALID,99.7866,VALID,-0.0339617,VALID,18.6154,VALID,92,VALID,0.819754,
2003-11-02, 02:56:00,VALID,916.299,VALID,0,VALID,99.9507,VALID,-0.101885,VALID,18.6415,VALID,97,VALID,0.942187,
2003-11-02, 02:57:00,VALID,916.283,VALID,0,VALID,99.986,VALID,-0.0849042,VALID,18.6772,VALID,112,VALID,1.31895,
2003-11-02, 02:58:00,VALID,916.288,VALID,0,VALID,99.9758,VALID,-0.0849042,VALID,18.7031,VALID,95,VALID,0.842297,
2003-11-02, 02:59:00,VALID,916.279,VALID,0,VALID,99.9822,VALID,-0.0509425,VALID,18.7053,VALID,93,VALID,0.618555,
2003-11-02, 03:00:00,VALID,916.287,VALID,0,VALID,99.9883,VALID,-0.0679233,VALID,18.7316,VALID,78,VALID,0.604802,
2003-11-02, 03:01:00,VALID,916.293,VALID,0,VALID,99.9748,VALID,-0.0339617,VALID,18.7483,VALID,99,VALID,0.829545,
2003-11-02, 03:02:00,VALID,916.307,VALID,0,VALID,99.943,VALID,-0.0679233,VALID,18.7642,VALID,120,VALID,0.599201,
2003-11-02, 03:03:00,VALID,916.286,VALID,0,VALID,99.8718,VALID,-0.101885,VALID,18.7739,VALID,99,VALID,0.656822,
2003-11-02, 03:04:00,VALID,916.283,VALID,0,VALID,99.7917,VALID,-0.0849042,VALID,18.7607,VALID,114,VALID,0.75728,
2003-11-02, 03:05:00,VALID,916.275,VALID,0,VALID,99.718,VALID,0.0169808,VALID,18.7729,VALID,109,VALID,0.871466,
2003-11-02, 03:06:00,VALID,916.278,VALID,0,VALID,99.6569,VALID,0,VALID,18.763,VALID,113,VALID,0.721112,
2003-11-02, 03:07:00,VALID,916.262,VALID,0,VALID,99.5883,VALID,0.0509425,VALID,18.7531,VALID,114,VALID,0.695898,
2003-11-02, 03:08:00,VALID,916.276,VALID,0,VALID,99.5972,VALID,0,VALID,18.7561,VALID,117,VALID,0.834847,
2003-11-02, 03:09:00,VALID,916.28,VALID,0,VALID,99.5819,VALID,0.0509425,VALID,18.7593,VALID,127,VALID,1.01344,
2003-11-02, 03:10:00,VALID,916.294,VALID,0,VALID,99.5056,VALID,0.0169808,VALID,18.763,VALID,109,VALID,0.697545,
2003-11-02, 03:11:00,VALID,916.298,VALID,0,VALID,99.4878,VALID,0.0339617,VALID,18.7627,VALID,99,VALID,0.670422,
2003-11-02, 03:12:00,VALID,916.298,VALID,0,VALID,99.4662,VALID,0.0679233,VALID,18.7819,VALID,71,VALID,0.622743,
2003-11-02, 03:13:00,VALID,916.296,VALID,0,VALID,99.414,VALID,0.0339617,VALID,18.7985,VALID,77,VALID,0.579459,
2003-11-02, 03:14:00,VALID,916.3,VALID,0,VALID,99.3886,VALID,0.0339617,VALID,18.8045,VALID,76,VALID,0.492365,
2003-11-02, 03:15:00,VALID,916.304,VALID,0,VALID,99.3288,VALID,0.0169808,VALID,18.8112,VALID,80,VALID,0.670313,
2003-11-02, 03:16:00,VALID,916.292,VALID,0,VALID,99.2335,VALID,0,VALID,18.8308,VALID,101,VALID,0.634055,
2003-11-02, 03:17:00,VALID,916.272,VALID,0,VALID,99.0987,VALID,0.0509425,VALID,18.8502,VALID,98,VALID,0.618164,
2003-11-02, 03:18:00,VALID,916.263,VALID,0,VALID,98.9842,VALID,0.0339617,VALID,18.8695,VALID,95,VALID,0.651367,
2003-11-02, 03:19:00,VALID,916.253,VALID,0,VALID,98.8494,VALID,0,VALID,18.8825,VALID,97,VALID,0.670025,
2003-11-02, 03:20:00,VALID,916.246,VALID,0,VALID,98.7375,VALID,-0.0169808,VALID,18.8896,VALID,105,VALID,0.513765,
2003-11-02, 03:21:00,VALID,916.245,VALID,0,VALID,98.6129,VALID,-0.0169808,VALID,18.9055,VALID,107,VALID,0.321403,
2003-11-02, 03:22:00,VALID,916.26,VALID,0,VALID,98.5557,VALID,0,VALID,18.909,VALID,107,VALID,0.270531,
2003-11-02, 03:23:00,VALID,916.266,VALID,0,VALID,98.5519,VALID,-0.0169808,VALID,18.9055,VALID,106,VALID,0.287791,
2003-11-02, 03:24:00,VALID,916.274,VALID,0,VALID,98.5328,VALID,-0.0169808,VALID,18.9088,VALID,103,VALID,0.436773,
2003-11-02, 03:25:00,VALID,916.272,VALID,0,VALID,98.4807,VALID,-0.0169808,VALID,18.9187,VALID,103,VALID,0.437322,
2003-11-02, 03:26:00,VALID,916.271,VALID,0,VALID,98.4273,VALID,-0.0509425,VALID,18.9189,VALID,103,VALID,0.395461,
2003-11-02, 03:27:00,VALID,916.274,VALID,0,VALID,98.379,VALID,-0.0169808,VALID,18.9021,VALID,103,VALID,0.447311,
2003-11-02, 03:28:00,VALID,916.262,VALID,0,VALID,98.309,VALID,0,VALID,18.8933,VALID,103,VALID,0.57649,
2003-11-02, 03:29:00,VALID,916.26,VALID,0,VALID,98.4031,VALID,-0.0169808,VALID,18.864,VALID,106,VALID,0.801847,
2003-11-02, 03:30:00,VALID,916.265,VALID,0,VALID,98.5188,VALID,0,VALID,18.8407,VALID,112,VALID,0.669207,
2003-11-02, 03:31:00,VALID,916.265,VALID,0,VALID,98.5621,VALID,0,VALID,18.8179,VALID,124,VALID,0.547396,
2003-11-02, 03:32:00,VALID,916.256,VALID,0,VALID,98.6015,VALID,0,VALID,18.8154,VALID,124,VALID,0.512005,
2003-11-02, 03:33:00,VALID,916.262,VALID,0,VALID,98.6867,VALID,-0.0169808,VALID,18.8124,VALID,124,VALID,0.460007,
2003-11-02, 03:34:00,VALID,916.253,VALID,0,VALID,98.7503,VALID,-0.0339617,VALID,18.8052,VALID,124,VALID,0.182231,
2003-11-02, 03:35:00,VALID,916.238,VALID,0,VALID,98.7655,VALID,-0.0169808,VALID,18.8188,VALID,124,VALID,0.0625,
2003-11-02, 03:36:00,VALID,916.226,VALID,0,VALID,98.7999,VALID,0,VALID,18.8117,VALID,124,VALID,0,
2003-11-02, 03:37:00,VALID,916.224,VALID,0,VALID,98.81,VALID,0,VALID,18.8119,VALID,124,VALID,0,